K1IC Weather Reports


time (UTC)temp
F
wind
direction
speed
knots
gust
knots
rain 1hr
in
rain 24hr
in
rain mn
in
humidity
%
barometer
mb
20260504175137 69 225 2.6 3.5 0.00 0.00 0.00 42 1009.6
20260504174117 69 248 2.6 5.2 0.00 0.00 0.00 42 1009.7
20260504173137 69 248 1.7 2.6 0.00 0.00 0.00 41 1009.8
20260504172116 69 225 1.7 4.3 0.00 0.00 0.00 42 1009.9
20260504171137 69 203 2.6 5.2 0.00 0.00 0.00 42 1009.9
20260504170116 68 270 2.6 5.2 0.00 0.00 0.00 42 1010.0
20260504160136 67 225 3.5 6.1 0.00 0.00 0.00 43 1010.9
20260504151136 64 248 2.6 6.1 0.00 0.00 0.00 52 1011.5
20260504150116 63 225 2.6 5.2 0.00 0.00 0.00 50 1011.6
20260504141116 61 248 1.7 2.6 0.00 0.00 0.00 55 1011.9
20260504140116 60 270 3.5 6.1 0.00 0.00 0.00 55 1012.0
20260504130136 58 248 1.7 5.2 0.00 0.00 0.00 56 1012.5
20260504120116 53 225 1.7 3.5 0.00 0.00 0.00 64 1012.6
20260504110116 42 0.0 0.0 0.00 0.00 0.00 82 1012.6
20260504100116 38 0.0 0.0 0.00 0.00 0.00 84 1012.3
20260504090115 39 0.0 0.0 0.00 0.00 0.00 83 1012.1
20260504081115 39 0.0 0.0 0.00 0.00 0.00 81 1011.8
20260504080115 39 0.0 0.0 0.00 0.00 0.00 80 1011.7
20260504070116 43 0.0 0.0 0.00 0.00 0.00 73 1011.5
20260504060136 40 0.0 0.0 0.00 0.00 0.00 80 1011.3
20260504050116 41 0.0 0.0 0.00 0.00 0.00 77 1011.1
20260504045116 41 0.0 0.0 0.00 0.00 0.00 77 1011.2
20260504044116 42 0.0 0.0 0.00 0.00 0.00 77 1011.1
20260504043116 42 0.0 0.9 0.00 0.00 0.00 77 1011.1
20260504042116 42 0.0 0.0 0.00 0.00 0.00 74 1011.1
20260504041116 42 0.0 0.0 0.00 0.00 0.00 75 1011.1
20260504040116 42 0.0 0.0 0.00 0.00 0.00 74 1010.9
20260504035116 42 0.0 0.0 0.00 0.00 0.00 73 1010.9
20260504034116 43 0.0 0.0 0.00 0.00 0.00 72 1011.0
20260504033116 43 0.0 0.0 0.00 0.00 0.00 70 1010.9
20260504032116 44 0.0 0.0 0.00 0.00 0.00 70 1010.9
20260504031116 44 0.0 0.0 0.00 0.00 0.00 69 1010.7
20260504030136 43 0.0 0.0 0.00 0.00 0.00 67 1010.8
20260504025136 44 0.0 0.0 0.00 0.00 0.00 66 1010.7
20260504024115 44 0.0 0.0 0.00 0.00 0.00 66 1010.8
20260504023116 44 0.0 0.0 0.00 0.00 0.00 64 1010.8
20260504022116 45 0.0 0.0 0.00 0.00 0.00 63 1010.8
20260504021116 46 0.0 0.0 0.00 0.00 0.00 61 1010.8
20260504020136 47 0.0 0.0 0.00 0.00 0.00 60 1010.7
20260504015136 47 0.0 0.0 0.00 0.00 0.00 59 1010.7
20260504014115 48 0.0 0.0 0.00 0.00 0.00 57 1010.7
20260504013136 48 0.0 0.0 0.00 0.00 0.00 55 1010.5
20260504012135 49 0.0 0.0 0.00 0.00 0.00 55 1010.5
20260504011115 50 0.0 0.0 0.00 0.00 0.00 52 1010.3
20260504010115 50 0.0 0.0 0.00 0.00 0.00 50 1010.2
20260504005116 51 0.0 0.0 0.00 0.00 0.00 50 1010.0
20260504004115 52 0.0 0.0 0.00 0.00 0.00 45 1009.9
20260504003115 54 0.0 0.0 0.00 0.00 0.00 43 1009.8
20260504002115 54 0.0 0.0 0.00 0.00 0.00 39 1009.7
20260504001135 55 0.0 0.0 0.00 0.00 0.00 38 1009.5
20260504000136 55 0.0 0.0 0.00 0.00 0.00 36 1009.3
20260503235115 56 0.0 0.0 0.00 0.00 0.00 36 1009.2
20260503234115 56 0.0 0.0 0.00 0.00 0.00 34 1009.0
20260503233116 57 315 0.9 1.7 0.00 0.00 0.00 33 1008.9
20260503232115 57 315 1.7 1.7 0.00 0.00 0.00 33 1008.8
20260503231135 57 293 0.9 2.6 0.00 0.00 0.00 32 1008.6
20260503230115 58 270 1.7 2.6 0.00 0.00 0.00 31 1008.6
20260503225115 59 315 1.7 5.2 0.00 0.00 0.00 30 1008.5
20260503224136 59 293 3.5 5.2 0.00 0.00 0.00 30 1008.4
20260503223117 60 293 5.2 7.8 0.00 0.00 0.00 30 1008.5
20260503222117 59 270 4.3 9.6 0.00 0.00 0.00 31 1008.5
20260503221117 60 338 4.3 7.0 0.00 0.00 0.00 32 1008.4
20260503220117 59 293 1.7 2.6 0.00 0.00 0.00 33 1008.4
20260503215117 59 315 2.6 5.2 0.00 0.00 0.00 33 1008.5
20260503214117 59 293 3.5 6.1 0.00 0.00 0.00 33 1008.4
20260503213117 59 338 3.5 6.1 0.00 0.00 0.00 35 1008.3
20260503212117 59 45 2.6 7.0 0.00 0.00 0.00 35 1008.4
20260503211117 58 315 3.5 7.0 0.00 0.00 0.00 36 1008.3
20260503210117 59 270 5.2 7.8 0.00 0.00 0.00 34 1008.2
20260503205117 59 270 6.1 10.4 0.00 0.00 0.00 34 1008.4
20260503204117 58 315 4.3 9.6 0.00 0.00 0.00 35 1008.3
20260503203117 58 293 5.2 9.6 0.00 0.00 0.00 36 1008.3
20260503202137 58 315 2.6 5.2 0.00 0.00 0.00 37 1008.3
20260503201117 57 270 5.2 7.0 0.00 0.00 0.00 37 1008.3
20260503200117 56 315 6.1 12.2 0.00 0.00 0.00 38 1008.7
20260503195117 57 315 4.3 7.8 0.00 0.00 0.00 39 1008.5
20260503194117 56 315 2.6 5.2 0.00 0.00 0.00 41 1008.7
20260503193117 55 248 1.7 4.3 0.00 0.00 0.00 39 1008.7
20260503192117 56 293 5.2 9.6 0.00 0.00 0.00 40 1009.0
20260503191137 56 315 7.0 12.2 0.00 0.00 0.00 41 1008.8
20260503190117 56 315 5.2 9.6 0.00 0.00 0.00 38 1008.9
20260503185119 56 293 4.3 10.4 0.00 0.00 0.00 39 1008.8
20260503184117 56 293 8.7 16.5 0.00 0.00 0.00 38 1008.9
20260503183117 55 315 1.7 4.3 0.00 0.00 0.00 40 1008.9
20260503182116 55 293 2.6 3.5 0.00 0.00 0.00 40 1008.8
20260503181117 56 293 3.5 8.7 0.00 0.00 0.00 39 1008.7
20260503180117 55 293 3.5 4.3 0.00 0.00 0.00 38 1008.6